Theta_e
329 327 328 330 329 328 328 328 328 330 328 328 327 330 330 333 334 336 337 348 352 349 353 355 355 352 351 350 348 351 354 353 351 352 352 350 349 351 351 349 350 347 348 349
334 331 331 329 328 328 328 327 327 330 328 327 326 331 330 332 334 336 344 347 357 356 355 355 356 356 356 353 352 352 354 355 353 353 352 351 349 350 351 350 350 353 349 350
329 329 330 329 329 329 328 328 330 330 329 328 328 329 332 333 338 340 344 347 351 356 356 354 356 356 357 357 355 354 353 355 354 354 356 354 353 354 352 351 348 350 353 353
329 328 328 328 329 329 330 330 331 331 328 327 328 328 333 332 336 340 342 343 347 351 353 354 354 356 358 357 356 357 356 356 356 355 356 358 356 356 355 354 350 348 350 353
328 330 329 329 330 329 331 329 329 330 328 327 328 327 334 332 336 341 342 343 345 347 350 347 346 349 358 358 356 355 355 358 358 358 357 359 359 357 355 356 356 352 350 350
328 329 328 328 329 329 329 329 329 330 327 330 331 333 337 336 338 342 342 344 344 344 344 344 346 346 345 345 352 362 357 356 357 360 359 357 357 359 357 356 356 354 354 352
328 328 327 327 329 328 329 329 331 333 332 336 334 337 336 338 338 338 338 339 342 345 344 346 347 346 347 347 346 346 348 355 362 360 361 360 359 357 359 357 355 353 352 354
329 332 328 329 329 330 330 329 328 336 336 335 332 335 341 338 335 336 336 335 336 339 343 345 345 345 344 346 346 346 347 347 349 355 360 363 363 362 360 360 357 355 355 356
331 333 330 330 329 328 330 330 329 329 329 329 331 339 338 336 335 334 333 337 337 337 337 336 338 343 344 343 343 344 347 348 349 350 351 354 355 357 359 360 360 359 358 356
331 331 331 331 329 329 328 328 326 326 332 335 335 341 339 338 336 334 334 334 334 334 334 335 336 342 342 342 342 343 343 345 345 347 350 352 352 353 352 355 356 359 360 359
329 330 330 331 331 330 330 328 330 329 329 333 334 343 339 337 336 334 332 335 334 335 337 337 336 337 337 339 340 340 341 343 346 348 346 346 346 347 350 353 353 356 357 359
330 328 335 332 330 330 332 332 330 332 332 329 335 333 330 334 332 330 332 333 336 336 336 336 337 337 339 339 339 340 341 342 346 346 348 348 347 347 346 349 350 351 353 354
330 332 331 331 329 328 332 332 333 332 331 332 336 332 331 330 330 331 335 338 338 337 336 336 336 337 339 340 341 340 340 340 339 340 344 344 344 345 345 347 346 346 346 349
330 329 332 328 328 326 331 331 333 330 330 331 331 331 330 333 334 335 335 334 334 335 336 336 336 337 338 339 342 341 341 341 345 345 343 341 342 343 342 343 343 345 345 345
326 330 330 326 326 328 328 328 327 327 328 328 327 328 326 333 335 334 335 337 336 335 334 334 333 333 335 335 335 336 340 342 342 341 341 340 340 341 341 341 341 342 345 346
327 331 332 332 330 330 329 328 327 326 325 324 324 325 332 336 335 335 335 334 334 334 335 335 334 334 334 335 336 336 337 340 339 338 339 338 341 342 342 341 340 342 343 344
334 335 336 335 333 331 331 329 327 325 324 325 326 329 335 335 334 333 334 336 336 335 334 334 334 335 336 335 335 337 339 340 339 338 337 338 338 339 339 340 341 342 344 344
332 331 331 331 331 333 328 327 327 326 327 327 331 331 334 334 333 334 333 332 332 332 333 335 335 336 333 334 335 334 338 338 338 337 337 337 337 336 337 338 340 341 342 343
325 333 330 331 333 330 330 328 335 334 334 336 337 336 336 335 333 335 333 332 332 333 334 335 333 333 335 333 335 338 338 337 337 337 336 334 330 332 334 335 337 338 338 339
323 329 328 329 332 334 331 328 328 332 334 338 337 336 334 333 334 336 334 331 329 334 334 334 335 335 333 336 335 336 336 336 336 334 333 331 331 331 332 333 334 335 338 340
329 332 332 331 332 331 333 334 333 336 340 335 332 333 333 331 331 330 331 330 332 332 334 334 335 335 334 334 336 337 337 336 335 332 325 325 327 326 329 331 332 334 337 339
334 337 332 333 332 333 333 333 338 334 332 330 330 331 335 334 334 332 329 327 327 332 331 332 334 334 334 335 336 335 334 334 332 328 327 326 326 326 327 331 331 334 336 337
330 329 332 334 336 333 331 332 331 331 332 330 330 330 331 330 333 332 330 330 328 330 334 335 334 333 333 333 334 333 333 329 328 328 328 327 325 325 326 330 332 333 335 337
331 329 330 328 332 330 328 328 330 329 329 328 327 328 328 328 332 330 327 326 327 329 326 334 333 334 334 332 333 332 329 327 326 326 327 327 326 326 328 329 331 327 330 332
325 327 327 330 331 328 329 328 327 327 327 327 327 329 328 331 332 327 325 325 328 326 329 332 332 332 332 332 331 329 326 325 324 324 324 324 325 325 327 330 328 328 327 327
323 326 325 329 329 328 329 328 325 326 326 326 326 328 329 328 328 326 326 329 328 330 331 331 331 332 330 330 330 328 326 325 326 325 324 324 324 323 328 329 328 326 326 327
Wind_Speed
9 3 7 11 8 5 8 8 8 2 6 3 5 9 8 7 10 9 8 15 13 9 12 23 27 34 32 35 36 35 29 30 27 24 22 21 22 18 20 20 20 25 27 28
2 9 9 6 5 4 5 7 8 3 8 5 7 6 9 8 9 10 13 11 16 12 8 11 20 27 30 34 32 30 26 29 29 28 27 26 28 28 24 25 23 23 32 31
8 6 3 3 3 7 6 6 3 3 5 2 4 1 7 7 14 14 12 11 11 11 10 7 9 22 26 28 33 32 33 30 30 30 26 26 25 25 27 28 30 24 26 30
6 5 5 3 6 4 7 9 8 6 5 4 1 4 5 9 9 14 12 10 9 10 8 6 9 10 26 32 30 31 32 30 29 28 27 26 25 22 25 27 32 30 28 31
8 2 3 4 7 7 1 7 7 6 5 5 12 4 6 9 9 14 14 13 11 10 10 10 10 17 16 19 26 27 29 28 28 29 32 29 31 30 30 28 24 35 33 34
7 2 3 2 4 2 5 6 8 6 2 3 10 4 3 5 14 15 14 17 15 15 13 10 17 15 13 8 9 15 26 28 29 29 32 35 31 26 28 32 28 28 30 37
10 12 7 7 1 4 6 3 4 6 2 5 8 7 8 10 13 16 13 12 14 14 13 11 9 13 16 14 7 1 6 8 19 29 30 32 34 32 30 35 32 31 27 31
5 9 11 8 4 2 4 3 4 2 2 4 8 2 2 9 10 9 9 10 11 11 10 9 10 18 19 16 13 10 12 10 11 14 17 28 29 31 33 31 31 32 32 33
2 4 9 7 7 7 4 3 1 2 5 3 2 5 6 10 9 7 8 12 10 9 9 9 10 13 16 14 12 11 11 14 14 15 15 19 21 24 29 32 34 37 37 40
3 4 5 1 7 1 4 2 5 4 2 5 2 2 4 7 8 8 13 10 9 9 9 7 8 14 13 6 2 5 11 15 16 17 18 18 20 25 27 27 30 34 36 38
4 3 9 6 4 8 1 2 3 4 4 1 3 1 4 6 8 8 9 9 9 9 8 8 8 11 8 7 10 10 12 14 12 14 16 17 20 23 23 25 26 29 32 35
3 2 1 6 8 9 4 6 5 5 6 2 2 5 7 8 8 7 9 8 8 9 8 7 7 9 8 5 5 8 11 14 13 14 16 19 23 25 26 24 24 26 27 30
3 3 3 8 7 7 4 2 5 0 3 5 4 5 4 10 11 10 10 8 7 7 7 7 7 7 6 5 3 7 10 14 19 19 19 21 23 23 26 21 23 27 29 27
6 2 5 5 6 6 6 8 5 6 3 5 5 5 7 3 10 8 8 7 5 5 8 6 7 7 11 11 10 10 10 11 10 12 19 24 27 29 27 26 27 30 31 34
4 1 2 5 9 8 10 10 9 5 5 3 6 6 8 1 8 7 8 9 8 7 6 6 4 3 6 10 13 14 12 9 12 16 19 24 26 27 27 28 28 30 29 32
4 3 4 4 7 9 12 11 10 9 8 9 9 6 5 6 8 8 7 7 6 5 7 7 6 6 7 11 15 19 20 14 17 17 19 20 23 27 27 29 29 29 29 31
4 3 3 2 6 9 7 6 9 11 8 8 4 3 5 5 6 5 8 9 7 5 5 5 4 4 8 15 20 24 21 11 14 15 18 19 21 22 22 22 23 25 27 30
3 4 3 2 5 5 8 8 10 11 10 3 8 7 7 5 7 9 8 7 5 3 3 3 4 9 15 17 18 22 17 16 15 15 15 12 14 19 20 22 23 24 25 27
3 4 2 5 5 8 6 8 6 3 5 7 7 8 8 7 8 7 7 5 2 2 0 2 6 11 11 19 20 17 17 19 16 10 9 13 16 19 19 20 25 23 22 23
7 5 5 2 3 6 4 11 13 4 1 7 9 9 8 7 3 3 3 2 5 2 6 5 6 5 12 15 23 26 23 16 12 10 9 12 14 17 20 21 25 24 21 20
4 3 6 5 6 6 2 9 6 3 2 3 4 3 2 1 4 3 7 7 8 11 6 8 6 8 12 19 22 22 18 11 7 5 7 10 12 16 20 21 25 24 19 13
7 6 5 3 4 8 3 5 4 6 3 4 6 7 3 3 0 3 6 8 8 8 15 19 6 9 16 18 19 19 9 3 4 4 5 7 9 14 21 25 24 19 13 9
3 4 4 4 1 0 5 1 7 3 2 6 3 6 6 6 3 4 3 5 5 10 14 3 5 10 17 19 21 9 5 5 2 1 3 6 7 11 24 24 16 10 9 6
1 4 3 5 3 0 9 5 5 3 2 2 4 6 7 7 2 5 6 6 8 18 16 14 10 10 13 22 8 5 3 1 4 4 3 4 6 16 25 28 12 7 7 7
2 4 3 2 6 8 6 4 5 3 2 4 6 5 6 5 6 6 6 3 8 22 21 10 10 8 10 7 4 4 5 5 6 7 7 6 9 16 26 15 9 4 3 4
4 3 2 0 3 5 4 13 8 6 4 4 6 6 10 14 11 11 9 12 8 12 6 6 5 7 10 7 8 8 8 8 9 10 9 11 12 22 19 20 14 5 1 2
Wind_Direction
218 179 236 244 199 5 345 348 340 333 105 67 277 135 115 97 93 82 80 68 61 105 129 149 155 163 162 175 176 177 173 181 190 195 200 210 220 231 244 232 228 223 221 215
228 235 248 34 15 354 330 307 303 250 123 124 275 164 152 125 129 105 74 60 105 94 75 82 129 141 147 157 165 167 174 181 191 198 206 211 217 225 233 231 242 244 227 221
220 256 81 22 330 286 271 249 297 27 356 305 267 230 130 125 114 101 86 81 69 109 110 97 102 133 146 151 164 180 187 189 195 203 207 211 219 231 234 232 237 241 231 221
228 135 72 317 283 46 39 7 0 338 2 274 92 245 188 148 135 123 111 101 97 89 83 113 112 108 153 169 177 181 190 197 201 206 207 209 217 226 227 233 232 235 233 225
266 155 150 274 73 20 15 13 320 314 316 332 299 78 244 145 135 135 138 138 137 127 114 88 88 73 139 163 179 189 195 201 207 210 212 215 220 227 231 240 235 235 237 233
259 257 129 251 35 98 333 306 308 282 220 332 255 142 289 175 141 141 147 147 142 132 124 120 123 123 121 121 115 194 206 211 216 217 222 225 231 234 232 236 242 241 240 233
277 252 191 146 321 261 233 330 324 357 19 220 317 79 202 108 142 139 141 138 148 138 133 138 141 132 136 124 120 193 210 226 235 232 234 236 238 239 238 236 242 245 246 228
274 323 147 149 182 91 317 113 133 285 52 280 321 309 238 101 87 103 122 136 96 114 134 149 155 156 153 154 168 185 196 230 250 255 263 248 247 247 247 244 238 240 244 241
349 59 77 144 100 110 320 11 207 37 320 44 161 63 42 112 119 135 119 97 108 112 113 113 126 157 156 164 172 180 203 220 227 243 258 264 267 265 260 259 254 248 244 248
32 7 317 142 91 182 180 245 17 346 314 289 338 145 182 144 168 126 103 112 107 98 88 83 69 76 80 83 23 232 241 227 242 245 245 252 267 267 270 270 265 259 253 250
73 105 290 127 180 201 95 241 251 141 110 189 8 294 124 106 119 124 138 138 133 114 96 86 75 73 58 51 28 8 349 332 290 253 250 256 264 268 272 276 277 278 270 258
53 127 305 263 304 318 143 179 121 108 309 277 152 269 147 164 152 117 102 90 97 102 101 99 87 57 57 50 356 337 326 328 330 338 308 282 271 266 269 267 274 285 289 276
352 7 16 327 340 351 285 154 90 20 126 236 149 254 90 74 78 73 99 98 105 112 115 95 83 72 35 339 320 298 294 298 300 308 315 307 304 294 271 270 282 280 283 287
70 80 147 204 252 266 304 312 189 187 149 233 223 258 308 100 134 116 104 108 108 76 83 79 63 54 35 11 345 321 298 302 297 301 305 305 300 300 291 280 280 280 281 281
101 146 347 302 297 311 316 314 323 322 255 208 250 277 277 356 124 110 92 83 78 64 64 108 97 64 19 346 330 320 299 298 304 305 301 301 303 303 298 287 282 279 277 280
147 218 219 261 297 300 287 293 291 281 287 295 287 297 37 98 84 74 92 84 61 29 35 55 38 19 342 324 316 307 293 273 287 298 296 304 304 303 298 291 285 280 276 280
128 92 48 272 343 342 320 301 305 298 290 255 251 144 115 94 91 81 80 82 79 56 46 17 350 329 327 319 312 309 294 278 291 295 297 297 300 305 307 299 291 281 274 275
123 117 104 266 354 286 250 276 280 281 265 324 77 59 63 115 96 91 84 80 50 9 352 6 347 334 318 309 313 308 292 292 288 285 297 309 316 315 312 310 301 292 277 280
188 150 174 161 213 270 296 277 351 29 312 29 59 53 59 39 105 39 65 37 320 273 101 269 304 303 330 322 326 316 306 301 289 281 310 321 327 326 322 317 315 300 295 292
222 157 155 207 234 266 239 306 296 157 278 31 54 38 32 21 17 240 174 213 299 287 264 249 290 330 327 327 323 315 293 286 267 281 304 317 322 324 326 326 315 304 292 285
213 210 190 210 231 249 62 13 344 159 239 32 40 7 309 298 234 279 18 352 334 321 328 348 359 347 332 328 323 309 297 272 259 255 296 313 322 326 331 321 311 319 323 330
190 174 197 206 246 259 51 33 113 209 282 46 24 343 354 355 3 332 354 342 347 7 345 315 334 328 324 327 322 308 293 271 243 251 287 316 322 326 325 321 318 325 323 3
263 178 177 111 246 352 344 125 37 359 65 45 15 303 314 342 28 46 314 307 287 314 273 270 325 330 326 328 320 283 212 231 252 315 332 343 341 324 317 315 317 326 344 12
31 53 70 51 345 331 123 113 104 115 124 341 328 313 329 307 230 244 269 319 342 320 329 325 330 334 333 338 292 184 212 270 314 323 347 354 333 315 319 310 291 321 356 3
309 49 305 255 355 25 40 110 116 104 89 337 313 316 315 357 300 249 264 245 82 290 281 296 316 324 2 350 199 214 277 281 276 289 292 303 306 316 306 296 291 295 15 16
340 9 41 197 141 114 21 359 348 11 5 355 340 329 22 35 8 3 328 292 224 245 230 255 339 340 334 295 262 271 271 259 270 285 292 305 306 297 300 294 248 243 227 74